East Milton, MA

1:33 PM EST on February 20, 2018 (GMT -0500)
East Milton

Weather History for KMQE - July, 2012

Change the Weather History Date:

Sunday, July 22, 2012

  Actual Average (KOWD) Record (KOWD)
Temperature  
Mean Temperature 72 °F -  
Max Temperature 84 °F 79 °F 100 °F (2011)
Min Temperature 60 °F 57 °F 51 °F (2012)
Cooling Degree Days 7    
Growing Degree Days 22 (Base 50)    
Moisture  
Dew Point 57 °F    
Average Humidity 64    
Maximum Humidity 93    
Minimum Humidity 36    
Precipitation  
Precipitation 0.00 in - - ()
Sea Level Pressure  
Sea Level Pressure 30.15 in    
Wind  
Wind Speed 11 mph (SSW)    
Max Wind Speed 16 mph    
Max Gust Speed 24 mph    
Averages and records for this station are not official NWS values.
T = Trace of Precipitation, MM = Missing Value Source: NWS Daily Summary

Daily Weather History Graph

Daily Weather History Graph

Search for Another Location

Airport or City:

Trip Planner

Search our weather history database for the weather conditions in past years. The results will help you decide how hot, cold, wet, or windy it might be!

Date:

Astronomy

Jul. 22, 2012 Rise Set
Actual Time 5:28 AM EDT 8:13 PM EDT
Civil Twilight 4:55 AM EDT 8:45 PM EDT
Nautical Twilight 4:14 AM EDT 9:26 PM EDT
Astronomical Twilight 3:26 AM EDT 10:13 PM EDT
Moon 9:15 AM EDT (7/22) 9:48 PM EDT (7/22)
Length of Visible Light 15h 50m
Length of Day
14h 45m
Waxing Crescent, 13% of the Moon is Illuminated
Jul 22
Waxing Crescent
Jul 26
First Quarter
Aug 1
Full
Aug 9
Last Quarter
Aug 17
New

Hourly Weather History & Observations

Time (EDT) Temp. Heat Index Dew Point Humidity Pressure Visibility Wind Dir Wind Speed Gust Speed Precip Events Conditions
12:54 AM 62.1 °F - 57.9 °F 86% 30.14 in - SW 11.5 mph - N/A   Unknown
1:54 AM 61.0 °F - 57.9 °F 90% 30.15 in - WSW 10.4 mph - N/A   Unknown
2:54 AM 60.1 °F - 57.9 °F 93% 30.15 in - WSW 11.5 mph - N/A   Unknown
3:54 AM 61.0 °F - 55.9 °F 83% 30.15 in - WSW 10.4 mph - N/A   Unknown
4:54 AM 61.0 °F - 55.0 °F 81% 30.16 in - SW 9.2 mph - N/A   Unknown
5:54 AM 61.0 °F - 54.0 °F 78% 30.16 in - SW 10.4 mph - N/A   Unknown
6:54 AM 63.0 °F - 54.0 °F 72% 30.17 in - SW 11.5 mph - N/A   Unknown
7:54 AM 66.0 °F - 55.9 °F 70% 30.17 in - SW 8.1 mph - N/A   Unknown
8:54 AM 70.0 °F - 57.0 °F 63% 30.17 in - WSW 5.8 mph - N/A   Unknown
9:54 AM 75.0 °F - 57.9 °F 55% 30.17 in - Variable 6.9 mph - N/A   Unknown
10:54 AM 79.0 °F - 57.0 °F 47% 30.17 in - South 5.8 mph - N/A   Unknown
11:54 AM 81.0 °F 80.4 °F 53.1 °F 38% 30.17 in - SW 6.9 mph - N/A   Unknown
12:54 PM 82.9 °F 81.8 °F 53.1 °F 36% 30.15 in - SSW 11.5 mph 16.1 mph N/A   Unknown
1:54 PM 84.0 °F 82.9 °F 55.0 °F 37% 30.14 in - SSW 10.4 mph 17.3 mph N/A   Unknown
2:54 PM 82.9 °F 82.4 °F 57.0 °F 41% 30.13 in - SSW 11.5 mph 20.7 mph N/A   Unknown
3:54 PM 80.1 °F 80.6 °F 57.9 °F 47% 30.13 in - South 13.8 mph 21.9 mph N/A   Unknown
4:54 PM 80.1 °F 80.9 °F 60.1 °F 50% 30.13 in - South 16.1 mph 21.9 mph N/A   Unknown
5:54 PM 77.0 °F - 55.0 °F 47% 30.13 in - South 13.8 mph 24.2 mph N/A   Unknown
6:54 PM 75.0 °F - 55.0 °F 50% 30.12 in - South 16.1 mph 23.0 mph N/A   Unknown
7:54 PM 72.0 °F - 57.9 °F 61% 30.13 in - South 13.8 mph 20.7 mph N/A   Unknown
8:54 PM 69.1 °F - 57.9 °F 68% 30.14 in - South 12.7 mph - N/A   Unknown
9:54 PM 66.9 °F - 59.0 °F 76% 30.14 in - SSW 15.0 mph - N/A   Unknown
10:54 PM 66.0 °F - 59.0 °F 78% 30.14 in - SSW 13.8 mph 20.7 mph N/A   Unknown
11:54 PM 64.9 °F - 60.1 °F 84% 30.14 in - SSW 13.8 mph - N/A   Unknown